BIPCOM Weather Reports


time (UTC)temp
C
wind
direction
speed
KPH
gust
KPH
rain 1hr
cm
rain 24hr
cm
rain mn
cm
humidity
%
barometer
mb
20260505083517 12 24 30.6 33.8 0.00 0.00 0.00 80 1011.6
20260505083013 12 22 29.0 33.8 0.00 0.00 0.00 81 1011.5
20260505082559 12 22 29.0 33.8 0.00 0.00 0.00 80 1011.5
20260505082049 12 15 25.7 33.8 0.00 0.00 0.00 80 1011.5
20260505081546 12 28 30.6 35.4 0.00 0.00 0.00 81 1011.4
20260505081029 12 5 29.0 37.0 0.00 0.00 0.00 81 1011.5
20260505080519 12 12 32.2 37.0 0.00 0.00 0.00 81 1011.4
20260505080025 12 13 29.0 35.4 0.00 0.00 0.00 81 1011.4
20260505075557 12 5 27.4 32.2 0.00 0.00 0.00 83 1011.4
20260505075047 12 22 25.7 29.0 0.00 0.00 0.00 83 1011.4
20260505074542 12 14 25.7 29.0 0.00 0.00 0.00 83 1011.4
20260505074027 12 19 25.7 33.8 0.00 0.00 0.00 84 1011.4
20260505073506 12 14 29.0 32.2 0.00 0.00 0.00 84 1011.4
20260505073106 12 13 27.4 32.2 0.00 0.00 0.00 84 1011.3
20260505072547 11 19 27.4 30.6 0.00 0.00 0.00 84 1011.3
20260505072037 11 20 24.1 29.0 0.00 0.00 0.00 86 1011.4
20260505071534 11 24 22.5 25.7 0.00 0.00 0.00 87 1011.4
20260505071018 11 30 20.9 27.4 0.00 0.00 0.00 87 1011.4
20260505070510 11 19 22.5 27.4 0.00 0.00 0.00 88 1011.4
20260505070059 11 18 22.5 27.4 0.00 0.00 0.00 88 1011.5
20260505065549 11 13 22.5 27.4 0.00 0.00 0.00 88 1011.5
20260505065038 11 9 19.3 25.7 0.00 0.00 0.00 89 1011.5
20260505064547 11 23 20.9 25.7 0.00 0.00 0.00 89 1011.5
20260505064007 11 20 20.9 25.7 0.00 0.00 0.00 90 1011.6
20260505063550 11 22 20.9 25.7 0.00 0.00 0.00 89 1011.7
20260505063046 11 15 22.5 27.4 0.00 0.00 0.00 89 1011.7
20260505062530 11 5 24.1 27.4 0.00 0.00 0.00 89 1011.6
20260505062020 11 5 22.5 27.4 0.00 0.00 0.00 89 1011.6
20260505061514 11 12 22.5 32.2 0.00 0.00 0.00 89 1011.6
20260505061101 11 11 25.7 32.2 0.00 0.00 0.00 89 1011.6
20260505060551 11 16 25.7 29.0 0.00 0.00 0.00 89 1011.6
20260505060041 11 5 22.5 29.0 0.00 0.00 0.00 89 1011.7
20260505055531 11 14 22.5 30.6 0.00 0.00 0.00 89 1011.7
20260505055021 11 15 24.1 30.6 0.00 0.00 0.00 89 1011.6
20260505054511 11 21 25.7 30.6 0.00 0.00 0.00 90 1011.5
20260505054103 11 26 25.7 30.6 0.00 0.00 0.00 90 1011.4
20260505053541 11 24 25.7 29.0 0.00 0.00 0.00 89 1011.5
20260505053031 11 24 24.1 30.6 0.00 0.00 0.00 89 1011.5
20260505052521 11 10 25.7 30.6 0.00 0.00 0.00 89 1011.4
20260505052011 11 19 25.7 30.6 0.00 0.00 0.00 89 1011.4
20260505051502 11 29 27.4 30.6 0.00 0.00 0.00 89 1011.4
20260505051052 11 14 25.7 33.8 0.00 0.00 0.00 89 1011.4
20260505050542 11 14 29.0 33.8 0.00 0.00 0.00 89 1011.2
20260505041612 11 18 20.9 24.1 0.00 0.00 0.00 90 1011.2
20260505041044 11 9 19.3 22.5 0.00 0.00 0.00 91 1011.4
20260505040534 11 5 16.1 20.9 0.00 0.00 0.00 91 1011.4
20260505040024 11 5 16.1 20.9 0.00 0.00 0.00 91 1011.4
20260505035515 11 351 17.7 20.9 0.00 0.00 0.00 91 1011.4
20260505035003 11 5 16.1 19.3 0.00 0.00 0.00 91 1011.5
20260505034600 11 360 14.5 19.3 0.00 0.00 0.00 91 1011.6
20260505034047 11 360 16.1 19.3 0.00 0.00 0.00 91 1011.6
20260505033526 11 355 16.1 20.9 0.00 0.00 0.00 91 1011.6
20260505033017 11 22 16.1 20.9 0.00 0.00 0.00 91 1011.6
20260505032503 12 5 16.1 20.9 0.00 0.00 0.00 91 1011.7
20260505032055 12 33 17.7 20.9 0.00 0.00 0.00 91 1011.8
20260505031549 11 46 14.5 19.3 0.00 0.00 0.00 91 1011.8
20260505031032 11 53 14.5 19.3 0.00 0.00 0.00 91 1011.8
20260505030522 12 49 12.9 22.5 0.00 0.00 0.00 91 1011.8
20260505030012 12 43 16.1 19.3 0.00 0.00 0.00 91 1011.9
20260505025502 12 45 16.1 22.5 0.00 0.00 0.00 91 1011.8
20260505025056 12 42 16.1 22.5 0.00 0.00 0.00 90 1011.8
20260505024547 12 37 19.3 22.5 0.00 0.00 0.00 90 1011.8
20260505024033 12 47 16.1 22.5 0.00 0.00 0.00 90 1011.8
20260505023512 12 42 19.3 25.7 0.00 0.00 0.00 90 1011.8
20260505023002 12 46 19.3 27.4 0.00 0.00 0.00 90 1011.8
20260505022554 12 39 20.9 27.4 0.00 0.00 0.00 90 1011.7
20260505022043 12 42 22.5 25.7 0.00 0.00 0.00 89 1011.8
20260505021539 12 38 22.5 25.7 0.00 0.00 0.00 89 1011.7
20260505021022 12 40 20.9 25.7 0.00 0.00 0.00 89 1011.8
20260505020512 12 24 16.1 24.1 0.00 0.00 0.00 89 1011.8
20260505020002 12 49 19.3 24.1 0.00 0.00 0.00 89 1011.8
20260505015557 12 49 19.3 22.5 0.00 0.00 0.00 89 1011.8
20260505015043 12 30 16.1 22.5 0.00 0.00 0.00 89 1011.9
20260505014540 12 37 19.3 20.9 0.00 0.00 0.00 89 1011.9
20260505014011 12 26 16.1 22.5 0.00 0.00 0.00 89 1011.9
20260505013501 12 13 17.7 24.1 0.00 0.00 0.00 89 1011.9
20260505013059 12 5 19.3 24.1 0.00 0.00 0.00 89 1011.8
20260505012543 12 13 17.7 22.5 0.00 0.00 0.00 89 1011.9
20260505012034 12 26 17.7 22.5 0.00 0.00 0.00 89 1012.0
20260505011523 12 42 19.3 22.5 0.00 0.00 0.00 89 1012.1
20260505011012 12 30 19.3 24.1 0.00 0.00 0.00 89 1012.2
20260505010504 12 40 20.9 24.1 0.00 0.00 0.00 89 1012.2
20260505010054 12 35 20.9 24.1 0.00 0.00 0.00 89 1012.2
20260505005544 12 24 20.9 24.1 0.00 0.00 0.00 89 1012.1
20260505005034 12 19 20.9 24.1 0.00 0.00 0.00 89 1012.1
20260505004524 12 19 17.7 22.5 0.00 0.00 0.00 89 1012.3
20260505004003 12 11 19.3 25.7 0.00 0.00 0.00 89 1012.3
20260505003553 12 14 19.3 27.4 0.00 0.00 0.00 89 1012.3
20260505003043 12 11 20.9 27.4 0.00 0.00 0.00 89 1012.1
20260505002536 12 13 22.5 27.4 0.00 0.00 0.00 89 1012.1
20260505002022 12 9 22.5 27.4 0.00 0.00 0.00 89 1012.1
20260505001515 12 360 20.9 25.7 0.00 0.00 0.00 89 1012.2
20260505001003 12 5 20.9 24.1 0.00 0.00 0.00 89 1012.2
20260505000553 12 13 20.9 24.1 0.00 0.00 0.00 89 1012.2
20260505000052 12 13 19.3 22.5 0.00 0.00 0.00 89 1012.3
20260504235533 12 14 19.3 22.5 0.00 0.00 0.00 89 1012.4
20260504235023 12 15 19.3 22.5 0.00 0.00 0.00 88 1012.4
20260504234512 13 18 17.7 20.9 0.00 0.00 0.00 89 1012.4
20260504234104 13 15 16.1 19.3 0.00 0.00 0.00 89 1012.4
20260504233543 13 15 14.5 20.9 0.00 0.00 0.00 89 1012.5
20260504233035 13 15 16.1 20.9 0.00 0.00 0.00 88 1012.5
20260504232524 13 21 17.7 20.9 0.00 0.00 0.00 88 1012.4
20260504232016 13 25 14.5 17.7 0.00 0.00 0.00 88 1012.4
20260504231513 13 36 11.3 14.5 0.00 0.00 0.00 88 1012.5
20260504231055 13 22 11.3 16.1 0.00 0.00 0.00 88 1012.4
20260504230545 13 26 14.5 16.1 0.00 0.00 0.00 88 1012.3
20260504230035 13 31 14.5 17.7 0.00 0.00 0.00 87 1012.3
20260504225524 13 34 14.5 17.7 0.00 0.00 0.00 87 1012.4
20260504225014 13 42 14.5 17.7 0.00 0.00 0.00 87 1012.4
20260504224506 13 49 11.3 16.1 0.00 0.00 0.00 86 1012.5
20260504224100 13 41 8.0 14.5 0.00 0.00 0.00 86 1012.5
20260504223536 13 32 9.7 14.5 0.00 0.00 0.00 85 1012.4
20260504223025 13 28 8.0 14.5 0.00 0.00 0.00 85 1012.5
20260504222515 13 20 11.3 16.1 0.00 0.00 0.00 84 1012.4
20260504222005 13 17 12.9 16.1 0.00 0.00 0.00 84 1012.4
20260504221602 13 31 9.7 14.5 0.00 0.00 0.00 83 1012.5
20260504221047 13 11 8.0 12.9 0.00 0.00 0.00 83 1012.5
20260504220536 13 5 8.0 11.3 0.00 0.00 0.00 83 1012.6
20260504220030 13 14 8.0 9.7 0.00 0.00 0.00 82 1012.6
20260504215516 13 14 9.7 11.3 0.00 0.00 0.00 82 1012.6
20260504215006 13 14 6.4 11.3 0.00 0.00 0.00 81 1012.7
20260504214558 13 316 4.8 8.0 0.00 0.00 0.00 81 1012.7
20260504214047 13 325 4.8 9.7 0.00 0.00 0.00 80 1012.7
20260504213528 13 317 6.4 8.0 0.00 0.00 0.00 80 1012.6
20260504213016 13 317 4.8 8.0 0.00 0.00 0.00 80 1012.6
20260504212508 13 309 4.8 8.0 0.00 0.00 0.00 79 1012.5
20260504212058 13 293 6.4 9.7 0.00 0.00 0.00 79 1012.5
20260504211551 13 296 4.8 9.7 0.00 0.00 0.00 79 1012.5
20260504211037 13 313 4.8 9.7 0.00 0.00 0.00 79 1012.5
20260504210527 13 313 4.8 9.7 0.00 0.00 0.00 79 1012.5
20260504210017 13 291 4.8 11.3 0.00 0.00 0.00 79 1012.5
20260504205507 13 291 4.8 12.9 0.00 0.00 0.00 79 1012.6
20260504205058 13 292 6.4 12.9 0.00 0.00 0.00 79 1012.6
20260504204559 13 291 4.8 9.7 0.00 0.00 0.00 79 1012.5
20260504204038 13 301 4.8 8.0 0.00 0.00 0.00 79 1012.5
20260504203517 13 274 3.2 9.7 0.00 0.00 0.00 79 1012.4
20260504203018 13 296 4.8 12.9 0.00 0.00 0.00 79 1012.4
20260504202559 13 317 6.4 12.9 0.00 0.00 0.00 79 1012.4
20260504202049 13 295 8.0 14.5 0.00 0.00 0.00 79 1012.4
20260504201546 13 308 8.0 14.5 0.00 0.00 0.00 79 1012.4
20260504201029 13 319 6.4 12.9 0.00 0.00 0.00 79 1012.4
20260504200518 13 309 4.8 8.0 0.00 0.00 0.00 78 1012.3
20260504200008 13 292 3.2 6.4 0.00 0.00 0.00 78 1012.4
20260504195557 13 292 1.6 6.4 0.00 0.00 0.00 78 1012.5
20260504195045 13 292 3.2 8.0 0.00 0.00 0.00 78 1012.4
20260504194556 13 292 3.2 8.0 0.00 0.00 0.00 78 1012.4
20260504194025 13 298 4.8 6.4 0.00 0.00 0.00 78 1012.4
20260504193505 13 265 3.2 9.7 0.00 0.00 0.00 78 1012.2
20260504193056 13 265 4.8 9.7 0.00 0.00 0.00 78 1012.1
20260504192545 13 293 3.2 8.0 0.00 0.00 0.00 78 1012.1
20260504192035 13 281 3.2 11.3 0.00 0.00 0.00 78 1012.1
20260504191529 13 284 4.8 12.9 0.00 0.00 0.00 78 1012.2
20260504191016 13 275 6.4 14.5 0.00 0.00 0.00 78 1012.2
20260504190505 13 308 8.0 14.5 0.00 0.00 0.00 78 1012.2
20260504190125 13 300 8.0 16.1 0.00 0.00 0.00 78 1012.1
20260504185546 13 316 8.0 14.5 0.00 0.00 0.00 78 1012.1
20260504185036 13 309 8.0 14.5 0.00 0.00 0.00 78 1012.1
20260504184533 13 303 6.4 14.5 0.00 0.00 0.00 78 1012.1
20260504184005 13 259 8.0 16.1 0.00 0.00 0.00 78 1012.1
20260504183558 13 205 6.4 17.7 0.00 0.00 0.00 79 1012.1
20260504183047 13 197 14.5 17.7 0.00 0.00 0.00 78 1012.0
20260504182527 14 192 12.9 16.1 0.00 0.00 0.00 78 1011.9
20260504182017 14 171 6.4 8.0 0.00 0.00 0.00 76 1011.9
20260504181508 15 192 4.8 8.0 0.00 0.00 0.00 76 1011.8
20260504181059 15 192 6.4 8.0 0.00 0.00 0.00 75 1011.8
20260504180548 15 180 4.8 6.4 0.00 0.00 0.00 75 1011.7
20260504180106 15 180 3.2 6.4 0.00 0.00 0.00 73 1011.7
20260504175528 15 218 0.0 3.2 0.00 0.00 0.00 73 1011.8
20260504175018 15 218 1.6 3.2 0.00 0.00 0.00 73 1011.7
20260504174507 15 219 0.0 6.4 0.00 0.00 0.00 73 1011.7
20260504174059 15 218 3.2 6.4 0.00 0.00 0.00 73 1011.7
20260504173538 15 219 1.6 6.4 0.00 0.00 0.00 73 1011.7
20260504173028 15 219 3.2 8.0 0.00 0.00 0.00 74 1011.7
20260504172517 15 205 4.8 11.3 0.00 0.00 0.00 74 1011.7
20260504172008 15 211 4.8 12.9 0.00 0.00 0.00 74 1011.7
20260504171602 15 238 4.8 12.9 0.00 0.00 0.00 74 1011.7
20260504171049 15 225 6.4 11.3 0.00 0.00 0.00 73 1011.7
20260504170539 15 209 6.4 11.3 0.00 0.00 0.00 72 1011.7
20260504151033 14 238 14.5 24.1 0.00 0.00 0.00 74 1012.0
20260504150521 14 240 16.1 25.7 0.00 0.00 0.00 74 1012.0
20260504141018 15 215 9.7 24.1 0.00 0.00 0.00 76 1012.4
20260504140506 14 204 11.3 20.9 0.00 0.00 0.00 76 1012.4
20260504140122 14 228 11.3 19.3 0.00 0.00 0.00 76 1012.4
20260504130554 14 224 8.0 19.3 0.00 0.00 0.00 79 1012.4
20260504110530 13 220 12.9 16.1 0.00 0.00 0.00 85 1012.7
20260504100521 12 172 9.7 14.5 0.00 0.00 0.00 88 1012.8